Location: ???????
(60.4260°N, 46.9069°E)
Time: 22:22:11
(UTC+00:00)

Cosmos 724 - Pass Details

Date: 30 March 2020
Orbit: 863 x 932 km, 65.6° (Epoch: 24 May)

Event Time Altitude Azimuth Distance (km) Brightness Sun altitude
Exits shadow 00:34:15 18° 231° (SW) 1,977 5.5 -13.2°
Maximum altitude 00:38:37 86° 145° (SE) 874 4.3 -12.7°
Drops below altitude 10° 00:44:27 10° 56° (ENE) 2,516 8.2 -12.1°
Sets 00:46:56 0° 57° (ENE) 3,458 9.6 -11.9°
